Time,TemperatureF,DewpointF,PressureIn,WindDirection,WindDirectionDegrees,WindSpeedMPH,WindSpeedGustMPH,Humidity,HourlyPrecipIn,Conditions,Clouds,dailyrainin,SolarRadiationWatts/m^2,SoftwareType,DateUTC
2013-04-13 00:00:00,78.1,73.9,30.03,ENE,72,0.0,8.0,87,0.00,,,0.00,0.0,meteohub,2013-04-13 04:00:00,
2013-04-13 00:05:00,77.7,73.9,30.03,East,100,0.0,113.0,88,0.02,,,0.00,0.0,meteohub,2013-04-13 04:05:00,
2013-04-13 00:10:00,77.4,73.9,30.03,East,93,0.0,113.0,89,0.03,,,0.01,0.0,meteohub,2013-04-13 04:10:00,
2013-04-13 00:15:00,77.2,73.9,30.02,East,93,0.0,16.0,90,0.04,,,0.02,0.0,meteohub,2013-04-13 04:15:00,
2013-04-13 00:20:00,77.0,74.1,30.02,East,100,0.0,16.0,91,0.04,,,0.02,0.0,meteohub,2013-04-13 04:20:00,
2013-04-13 00:26:00,76.8,74.3,30.02,East,100,0.0,0.0,92,0.04,,,0.02,0.0,meteohub,2013-04-13 04:26:00,
2013-04-13 00:31:00,76.8,74.3,30.02,ESE,102,0.0,0.0,92,0.04,,,0.02,0.0,meteohub,2013-04-13 04:31:00,
2013-04-13 00:36:00,76.6,74.1,30.02,East,100,0.0,0.0,92,0.04,,,0.02,0.0,meteohub,2013-04-13 04:36:00,
2013-04-13 00:41:00,76.8,74.3,30.02,ESE,103,0.0,0.0,92,0.04,,,0.02,0.0,meteohub,2013-04-13 04:41:00,
2013-04-13 00:46:00,76.6,74.1,30.01,East,100,0.0,0.0,92,0.04,,,0.02,0.0,meteohub,2013-04-13 04:46:00,
2013-04-13 00:51:00,76.6,74.1,30.01,East,99,0.0,0.0,92,0.04,,,0.02,0.0,meteohub,2013-04-13 04:51:00,
2013-04-13 00:56:00,76.5,74.3,30.01,East,100,0.0,0.0,93,0.03,,,0.02,0.0,meteohub,2013-04-13 04:56:00,
2013-04-13 01:01:00,76.5,74.3,30.00,East,100,0.0,0.0,93,0.02,,,0.02,0.0,meteohub,2013-04-13 05:01:00,
2013-04-13 01:07:00,76.3,74.1,30.00,East,100,0.0,0.0,93,0.02,,,0.02,0.0,meteohub,2013-04-13 05:07:00,
2013-04-13 01:12:00,76.3,74.1,30.00,ESE,102,0.0,0.0,93,0.01,,,0.02,0.0,meteohub,2013-04-13 05:12:00,
2013-04-13 01:17:00,76.5,74.3,29.99,ESE,102,0.0,0.0,93,0.00,,,0.02,0.0,meteohub,2013-04-13 05:17:00,
2013-04-13 01:22:00,76.5,74.3,29.99,East,100,0.0,0.0,93,0.00,,,0.02,0.0,meteohub,2013-04-13 05:22:00,
2013-04-13 01:27:00,76.5,74.3,29.99,East,100,0.0,0.0,93,0.00,,,0.02,0.0,meteohub,2013-04-13 05:27:00,
2013-04-13 01:32:00,76.6,74.5,29.99,East,100,0.0,0.0,93,0.00,,,0.02,0.0,meteohub,2013-04-13 05:32:00,
2013-04-13 01:37:00,76.6,74.1,29.99,East,100,0.0,0.0,92,0.00,,,0.02,0.0,meteohub,2013-04-13 05:37:00,
2013-04-13 01:42:00,76.6,74.1,29.99,East,100,0.0,0.0,92,0.00,,,0.02,0.0,meteohub,2013-04-13 05:42:00,
2013-04-13 01:48:00,76.6,74.1,29.99,East,100,0.0,0.0,92,0.00,,,0.02,0.0,meteohub,2013-04-13 05:48:00,
2013-04-13 01:53:00,76.8,74.3,29.99,East,100,0.0,0.0,92,0.00,,,0.02,0.0,meteohub,2013-04-13 05:53:00,
2013-04-13 01:58:00,76.5,73.9,29.99,ESE,102,0.0,0.0,92,0.00,,,0.02,0.0,meteohub,2013-04-13 05:58:00,
2013-04-13 02:03:00,76.3,73.4,29.99,East,100,0.0,0.0,91,0.00,,,0.02,0.0,meteohub,2013-04-13 06:03:00,
2013-04-13 02:08:00,76.3,73.8,29.99,East,100,0.0,0.0,92,0.00,,,0.02,0.0,meteohub,2013-04-13 06:08:00,
2013-04-13 02:13:00,76.1,73.6,29.98,East,100,0.0,0.0,92,0.00,,,0.02,0.0,meteohub,2013-04-13 06:13:00,
2013-04-13 02:18:00,75.9,73.4,29.98,SE,137,0.0,0.0,92,0.00,,,0.02,0.0,meteohub,2013-04-13 06:18:00,
2013-04-13 02:23:00,75.7,73.2,29.98,SE,138,0.0,0.0,92,0.00,,,0.02,0.0,meteohub,2013-04-13 06:23:00,
2013-04-13 02:29:00,75.7,73.2,29.98,SE,141,0.0,1.0,92,0.00,,,0.02,0.0,meteohub,2013-04-13 06:29:00,
2013-04-13 02:34:00,75.7,73.2,29.98,SE,140,0.0,1.0,92,0.00,,,0.02,0.0,meteohub,2013-04-13 06:34:00,
2013-04-13 02:39:00,75.7,73.2,29.98,SE,141,0.0,1.0,92,0.00,,,0.02,0.0,meteohub,2013-04-13 06:39:00,
2013-04-13 02:44:00,75.7,73.2,29.98,SE,141,0.0,0.0,92,0.00,,,0.02,0.0,meteohub,2013-04-13 06:44:00,
2013-04-13 02:49:00,75.7,73.2,29.98,SE,143,0.0,0.0,92,0.00,,,0.02,0.0,meteohub,2013-04-13 06:49:00,
2013-04-13 02:54:00,75.7,73.2,29.98,SE,137,0.0,0.0,92,0.00,,,0.02,0.0,meteohub,2013-04-13 06:54:00,
2013-04-13 02:59:00,75.7,73.2,29.98,SE,141,0.0,0.0,92,0.00,,,0.02,0.0,meteohub,2013-04-13 06:59:00,
2013-04-13 03:04:00,75.7,73.2,29.98,SE,141,0.0,0.0,92,0.00,,,0.02,0.0,meteohub,2013-04-13 07:04:00,
2013-04-13 03:10:00,75.7,73.2,29.98,SE,141,0.0,0.0,92,0.00,,,0.02,0.0,meteohub,2013-04-13 07:10:00,
2013-04-13 03:15:00,75.7,72.9,29.98,SE,143,0.0,0.0,91,0.00,,,0.02,0.0,meteohub,2013-04-13 07:15:00,
2013-04-13 03:20:00,75.7,72.9,29.98,SE,141,0.0,0.0,91,0.00,,,0.02,0.0,meteohub,2013-04-13 07:20:00,
2013-04-13 03:25:00,75.9,72.9,29.98,SE,141,0.0,0.0,90,0.00,,,0.02,0.0,meteohub,2013-04-13 07:25:00,
2013-04-13 03:30:00,75.9,72.9,29.98,SE,141,0.0,0.0,90,0.00,,,0.02,0.0,meteohub,2013-04-13 07:30:00,
2013-04-13 03:35:00,75.9,72.9,29.98,SE,141,0.0,0.0,90,0.00,,,0.02,0.0,meteohub,2013-04-13 07:35:00,
2013-04-13 03:40:00,75.7,72.7,29.98,SE,140,0.0,0.0,90,0.00,,,0.02,0.0,meteohub,2013-04-13 07:40:00,
2013-04-13 03:45:00,75.9,72.5,29.98,SE,141,0.0,0.0,89,0.00,,,0.02,0.0,meteohub,2013-04-13 07:45:00,
2013-04-13 03:50:00,75.9,72.5,29.98,SE,141,0.0,0.0,89,0.00,,,0.02,0.0,meteohub,2013-04-13 07:50:00,
2013-04-13 03:56:00,75.9,72.5,29.98,SE,141,0.0,0.0,89,0.00,,,0.02,0.0,meteohub,2013-04-13 07:56:00,
2013-04-13 04:01:00,75.7,72.3,29.98,SE,143,0.0,0.0,89,0.00,,,0.02,0.0,meteohub,2013-04-13 08:01:00,
2013-04-13 04:06:00,75.7,72.3,29.98,SE,143,0.0,5.0,89,0.00,,,0.02,0.0,meteohub,2013-04-13 08:06:00,
2013-04-13 04:12:00,75.7,72.3,29.98,SE,145,0.0,6.0,89,0.00,,,0.02,0.0,meteohub,2013-04-13 08:12:00,
2013-04-13 04:17:00,75.6,72.1,29.98,SE,145,0.0,6.0,89,0.00,,,0.02,0.0,meteohub,2013-04-13 08:17:00,
2013-04-13 04:22:00,75.6,72.5,29.98,SE,144,0.0,6.0,90,0.00,,,0.02,0.0,meteohub,2013-04-13 08:22:00,
2013-04-13 04:27:00,75.6,72.5,29.98,SE,145,0.0,0.0,90,0.00,,,0.02,0.0,meteohub,2013-04-13 08:27:00,
2013-04-13 04:32:00,75.4,72.3,29.98,SE,144,0.0,0.0,90,0.00,,,0.02,0.0,meteohub,2013-04-13 08:32:00,
2013-04-13 04:38:00,75.4,72.3,29.98,SE,145,0.0,0.0,90,0.00,,,0.02,0.0,meteohub,2013-04-13 08:38:00,
2013-04-13 04:43:00,75.4,72.3,29.98,SE,144,0.0,0.0,90,0.00,,,0.02,0.0,meteohub,2013-04-13 08:43:00,
2013-04-13 04:48:00,75.6,72.5,29.98,SE,145,0.0,0.0,90,0.00,,,0.02,0.0,meteohub,2013-04-13 08:48:00,
2013-04-13 04:53:00,75.4,72.3,29.98,SE,144,0.0,0.0,90,0.00,,,0.02,0.0,meteohub,2013-04-13 08:53:00,
2013-04-13 04:58:00,75.4,72.3,29.99,SE,144,0.0,0.0,90,0.00,,,0.02,0.0,meteohub,2013-04-13 08:58:00,
2013-04-13 05:03:00,75.4,72.3,29.99,SE,144,0.0,0.0,90,0.00,,,0.02,0.0,meteohub,2013-04-13 09:03:00,
2013-04-13 05:09:00,75.4,72.3,29.99,SE,144,0.0,0.0,90,0.00,,,0.02,0.0,meteohub,2013-04-13 09:09:00,
2013-04-13 05:14:00,75.4,72.3,29.99,SE,145,0.0,0.0,90,0.00,,,0.02,0.0,meteohub,2013-04-13 09:14:00,
2013-04-13 05:19:00,75.4,72.3,29.99,SE,145,0.0,0.0,90,0.00,,,0.02,0.0,meteohub,2013-04-13 09:19:00,
2013-04-13 05:24:00,75.0,72.1,29.99,SE,140,0.0,0.0,91,0.00,,,0.02,0.0,meteohub,2013-04-13 09:24:00,
2013-04-13 05:29:00,75.0,72.1,30.00,SE,145,0.0,0.0,91,0.00,,,0.02,0.0,meteohub,2013-04-13 09:29:00,
2013-04-13 05:34:00,75.0,72.1,30.00,SE,144,0.0,0.0,91,0.00,,,0.02,0.0,meteohub,2013-04-13 09:34:00,
2013-04-13 05:39:00,74.8,72.0,30.00,SE,145,0.0,0.0,91,0.00,,,0.02,0.0,meteohub,2013-04-13 09:39:00,
2013-04-13 05:44:00,74.8,72.0,30.00,SE,145,0.0,0.0,91,0.00,,,0.02,0.0,meteohub,2013-04-13 09:44:00,
2013-04-13 05:49:00,74.7,72.1,30.00,SE,145,0.0,0.0,92,0.00,,,0.02,0.0,meteohub,2013-04-13 09:49:00,
2013-04-13 05:55:00,74.7,72.1,30.00,SE,145,0.0,0.0,92,0.00,,,0.02,0.0,meteohub,2013-04-13 09:55:00,
2013-04-13 06:00:00,74.7,72.1,30.01,SE,144,0.0,0.0,92,0.00,,,0.02,0.0,meteohub,2013-04-13 10:00:00,
2013-04-13 06:05:00,74.7,72.1,30.01,SE,144,0.0,0.0,92,0.00,,,0.02,0.0,meteohub,2013-04-13 10:05:00,
2013-04-13 06:10:00,74.7,72.1,30.01,SE,145,0.0,0.0,92,0.00,,,0.02,0.0,meteohub,2013-04-13 10:10:00,
2013-04-13 06:15:00,74.5,72.0,30.01,SE,145,0.0,0.0,92,0.00,,,0.02,5.0,meteohub,2013-04-13 10:15:00,
2013-04-13 06:20:00,74.7,72.1,30.01,SE,145,0.0,0.0,92,0.00,,,0.02,7.0,meteohub,2013-04-13 10:20:00,
2013-04-13 06:26:00,74.7,72.1,30.01,SE,145,0.0,0.0,92,0.00,,,0.02,7.0,meteohub,2013-04-13 10:26:00,
2013-04-13 06:31:00,74.7,72.5,30.01,SE,145,0.0,0.0,93,0.00,,,0.02,14.0,meteohub,2013-04-13 10:31:00,
2013-04-13 06:37:00,74.7,72.5,30.01,SE,145,0.0,0.0,93,0.00,,,0.02,51.0,meteohub,2013-04-13 10:37:00,
2013-04-13 06:42:00,74.7,72.5,30.01,SE,145,0.0,0.0,93,0.00,,,0.02,44.0,meteohub,2013-04-13 10:42:00,
2013-04-13 06:47:00,74.7,72.5,30.01,SE,145,0.0,0.0,93,0.00,,,0.02,46.0,meteohub,2013-04-13 10:47:00,
2013-04-13 06:52:00,74.8,72.7,30.01,SE,145,0.0,0.0,93,0.00,,,0.02,118.0,meteohub,2013-04-13 10:52:00,
2013-04-13 06:57:00,75.0,72.5,30.01,SSE,147,0.0,0.0,92,0.00,,,0.02,132.0,meteohub,2013-04-13 10:57:00,
2013-04-13 07:02:00,75.4,72.9,30.02,SE,145,0.0,1.0,92,0.00,,,0.02,151.0,meteohub,2013-04-13 11:02:00,
2013-04-13 07:07:00,75.6,72.7,30.02,SE,145,0.0,1.0,91,0.00,,,0.02,171.0,meteohub,2013-04-13 11:07:00,
2013-04-13 07:13:00,76.1,73.2,30.02,SE,145,0.0,1.0,91,0.00,,,0.02,201.0,meteohub,2013-04-13 11:13:00,
2013-04-13 07:18:00,76.6,73.2,30.02,SE,145,0.0,0.0,89,0.00,,,0.02,222.0,meteohub,2013-04-13 11:18:00,
2013-04-13 07:23:00,76.8,72.7,30.02,SE,145,0.0,0.0,87,0.00,,,0.02,239.0,meteohub,2013-04-13 11:23:00,
2013-04-13 07:28:00,77.4,72.9,30.02,SE,145,0.0,0.0,86,0.00,,,0.02,260.0,meteohub,2013-04-13 11:28:00,
2013-04-13 07:33:00,77.7,72.5,30.02,SE,145,0.0,0.0,84,0.00,,,0.02,283.0,meteohub,2013-04-13 11:33:00,
2013-04-13 07:38:00,77.9,72.0,30.02,SE,145,0.0,1.0,82,0.00,,,0.02,303.0,meteohub,2013-04-13 11:38:00,
2013-04-13 07:43:00,78.6,72.3,30.02,SE,145,0.0,1.0,81,0.00,,,0.02,327.0,meteohub,2013-04-13 11:43:00,
2013-04-13 07:49:00,79.2,72.1,30.02,SE,145,0.0,1.0,79,0.00,,,0.02,347.0,meteohub,2013-04-13 11:49:00,
2013-04-13 07:54:00,79.5,72.1,30.02,SE,145,0.0,1.0,78,0.00,,,0.02,370.0,meteohub,2013-04-13 11:54:00,
2013-04-13 07:59:00,79.3,71.4,30.03,SE,145,0.0,0.0,77,0.00,,,0.02,389.0,meteohub,2013-04-13 11:59:00,
2013-04-13 08:04:00,79.5,71.6,30.03,SE,145,0.0,0.0,77,0.00,,,0.02,410.0,meteohub,2013-04-13 12:04:00,
2013-04-13 08:09:00,80.2,72.3,30.03,SE,145,0.0,1.0,77,0.00,,,0.02,429.0,meteohub,2013-04-13 12:09:00,
2013-04-13 08:14:00,80.8,71.8,30.04,East,88,0.0,1.0,74,0.00,,,0.02,449.0,meteohub,2013-04-13 12:14:00,
2013-04-13 08:19:00,81.0,71.4,30.04,East,90,0.0,1.0,73,0.00,,,0.02,472.0,meteohub,2013-04-13 12:19:00,
2013-04-13 08:24:00,81.1,71.2,30.04,SE,133,0.0,5.0,72,0.00,,,0.02,489.0,meteohub,2013-04-13 12:24:00,
2013-04-13 08:29:00,81.1,71.6,30.04,SE,138,0.0,5.0,73,0.00,,,0.02,510.0,meteohub,2013-04-13 12:29:00,
2013-04-13 08:34:00,81.7,71.8,30.04,SE,140,0.0,7.0,72,0.00,,,0.02,521.0,meteohub,2013-04-13 12:34:00,
2013-04-13 08:39:00,81.7,72.1,30.04,SE,143,0.0,7.0,73,0.00,,,0.02,551.0,meteohub,2013-04-13 12:39:00,
2013-04-13 08:45:00,82.0,71.8,30.04,ESE,121,0.0,7.0,71,0.00,,,0.02,584.0,meteohub,2013-04-13 12:45:00,
2013-04-13 08:50:00,82.2,71.4,30.04,SE,144,0.0,3.0,70,0.00,,,0.02,626.0,meteohub,2013-04-13 12:50:00,
2013-04-13 08:55:00,82.6,71.8,30.04,SE,145,0.0,6.0,70,0.00,,,0.02,642.0,meteohub,2013-04-13 12:55:00,
2013-04-13 09:00:00,82.9,71.8,30.04,SE,136,0.0,6.0,69,0.00,,,0.02,699.0,meteohub,2013-04-13 13:00:00,
2013-04-13 09:05:00,83.5,72.3,30.04,ESE,119,0.0,6.0,69,0.00,,,0.02,683.0,meteohub,2013-04-13 13:05:00,
2013-04-13 09:10:00,83.7,72.0,30.04,ESE,103,0.0,10.0,68,0.00,,,0.02,684.0,meteohub,2013-04-13 13:10:00,
2013-04-13 09:15:00,83.7,72.0,30.04,SE,143,0.0,11.0,68,0.00,,,0.02,728.0,meteohub,2013-04-13 13:15:00,
2013-04-13 09:20:00,82.8,71.6,30.04,SSE,147,0.0,11.0,69,0.00,,,0.02,197.0,meteohub,2013-04-13 13:20:00,
2013-04-13 09:26:00,82.2,71.4,30.04,SSE,147,0.0,11.0,70,0.00,,,0.02,158.0,meteohub,2013-04-13 13:26:00,
2013-04-13 09:31:00,82.2,72.0,30.04,South,175,0.0,7.0,71,0.00,,,0.02,225.0,meteohub,2013-04-13 13:31:00,
2013-04-13 09:37:00,82.9,71.8,30.04,ESE,107,0.0,6.0,69,0.00,,,0.02,150.0,meteohub,2013-04-13 13:37:00,
2013-04-13 09:42:00,82.8,71.6,30.04,SE,143,0.0,6.0,69,0.00,,,0.02,179.0,meteohub,2013-04-13 13:42:00,
2013-04-13 09:47:00,82.8,71.6,30.04,SE,140,0.0,7.0,69,0.00,,,0.02,185.0,meteohub,2013-04-13 13:47:00,
2013-04-13 09:52:00,83.7,71.6,30.04,SE,143,0.0,7.0,67,0.00,,,0.02,679.0,meteohub,2013-04-13 13:52:00,
2013-04-13 09:57:00,84.0,71.4,30.04,ESE,114,0.0,3.0,66,0.00,,,0.02,243.0,meteohub,2013-04-13 13:57:00,
2013-04-13 10:02:00,84.4,71.8,30.04,SE,143,0.0,6.0,66,0.00,,,0.02,1036.0,meteohub,2013-04-13 14:02:00,
2013-04-13 10:07:00,84.0,71.4,30.04,ESE,104,0.0,8.0,66,0.00,,,0.02,213.0,meteohub,2013-04-13 14:07:00,
2013-04-13 10:12:00,84.4,71.8,30.04,ESE,113,0.0,8.0,66,0.00,,,0.02,225.0,meteohub,2013-04-13 14:12:00,
2013-04-13 10:18:00,84.6,71.4,30.04,SSE,147,0.0,8.0,65,0.00,,,0.02,252.0,meteohub,2013-04-13 14:18:00,
2013-04-13 10:23:00,84.4,71.2,30.04,ESE,119,0.0,7.0,65,0.00,,,0.02,225.0,meteohub,2013-04-13 14:23:00,
2013-04-13 10:28:00,84.7,71.6,30.04,East,100,0.0,7.0,65,0.00,,,0.02,276.0,meteohub,2013-04-13 14:28:00,
2013-04-13 10:33:00,85.6,71.6,30.04,SE,144,0.0,7.0,63,0.00,,,0.02,1017.0,meteohub,2013-04-13 14:33:00,
2013-04-13 10:38:00,87.3,71.6,30.04,SSE,147,7.0,7.0,60,0.00,,,0.02,1080.0,meteohub,2013-04-13 14:38:00,
2013-04-13 10:44:00,88.3,72.1,30.04,ENE,61,4.0,10.0,59,0.00,,,0.02,1116.0,meteohub,2013-04-13 14:44:00,
2013-04-13 10:49:00,87.8,71.2,30.04,SE,138,0.0,10.0,58,0.00,,,0.02,297.0,meteohub,2013-04-13 14:49:00,
2013-04-13 10:54:00,86.2,72.5,30.04,ENE,76,0.0,10.0,64,0.00,,,0.02,150.0,meteohub,2013-04-13 14:54:00,
2013-04-13 10:59:00,85.5,72.3,30.04,SSE,165,8.0,8.0,65,0.00,,,0.02,283.0,meteohub,2013-04-13 14:59:00,
2013-04-13 11:04:00,85.3,72.1,30.04,ESE,112,0.0,10.0,65,0.00,,,0.02,234.0,meteohub,2013-04-13 15:04:00,
2013-04-13 11:09:00,84.9,71.8,30.04,ESE,123,0.0,10.0,65,0.00,,,0.02,299.0,meteohub,2013-04-13 15:09:00,
2013-04-13 11:14:00,85.6,72.5,30.03,ENE,61,0.0,10.0,65,0.00,,,0.02,334.0,meteohub,2013-04-13 15:14:00,
2013-04-13 11:20:00,85.6,72.1,30.03,SE,145,11.0,11.0,64,0.00,,,0.02,267.0,meteohub,2013-04-13 15:20:00,
2013-04-13 11:26:00,85.3,71.8,30.03,ESE,107,3.0,14.0,64,0.00,,,0.02,199.0,meteohub,2013-04-13 15:26:00,
2013-04-13 11:32:00,84.9,72.3,30.04,South,169,5.0,14.0,66,0.00,,,0.02,274.0,meteohub,2013-04-13 15:32:00,
2013-04-13 11:37:00,84.7,73.0,30.04,SSW,203,3.0,14.0,68,0.00,,,0.02,1131.0,meteohub,2013-04-13 15:37:00,
2013-04-13 11:42:00,85.3,72.7,30.04,South,171,0.0,14.0,66,0.00,,,0.02,197.0,meteohub,2013-04-13 15:42:00,
2013-04-13 11:47:00,85.5,72.3,30.03,South,169,5.0,12.0,65,0.00,,,0.02,296.0,meteohub,2013-04-13 15:47:00,
2013-04-13 11:53:00,85.1,73.8,30.03,SE,133,7.0,12.0,69,0.00,,,0.02,216.0,meteohub,2013-04-13 15:53:00,
2013-04-13 11:58:00,83.7,74.8,30.03,ESE,102,4.0,12.0,75,0.00,,,0.02,222.0,meteohub,2013-04-13 15:58:00,
2013-04-13 12:03:00,82.2,74.3,30.03,East,83,0.0,12.0,77,0.01,,,0.03,357.0,meteohub,2013-04-13 16:03:00,
2013-04-13 12:08:00,82.6,75.4,30.03,ENE,78,0.0,8.0,79,0.01,,,0.03,317.0,meteohub,2013-04-13 16:08:00,
2013-04-13 12:13:00,82.8,75.6,30.02,East,86,0.0,7.0,79,0.01,,,0.03,1043.0,meteohub,2013-04-13 16:13:00,
2013-04-13 12:18:00,83.8,76.3,30.02,ENE,71,1.0,3.0,78,0.01,,,0.03,282.0,meteohub,2013-04-13 16:18:00,
2013-04-13 12:24:00,83.7,75.2,30.02,NE,49,3.0,4.0,76,0.01,,,0.03,162.0,meteohub,2013-04-13 16:24:00,
2013-04-13 12:29:00,82.9,75.0,30.02,ENE,78,0.0,9.0,77,0.01,,,0.03,132.0,meteohub,2013-04-13 16:29:00,
2013-04-13 12:34:00,81.7,73.8,30.02,SSW,202,112.0,112.0,77,0.01,,,0.03,90.0,meteohub,2013-04-13 16:34:00,
2013-04-13 12:39:00,80.8,73.6,30.02,South,181,4.0,113.0,79,0.09,,,0.11,146.0,meteohub,2013-04-13 16:39:00,
2013-04-13 12:45:00,79.9,73.6,30.03,East,90,2.0,113.0,81,0.18,,,0.20,250.0,meteohub,2013-04-13 16:45:00,
2013-04-13 12:50:00,79.9,74.3,30.03,ESE,117,2.0,113.0,83,0.26,,,0.28,294.0,meteohub,2013-04-13 16:50:00,
2013-04-13 12:55:00,81.1,75.9,30.03,SE,130,6.0,16.0,84,0.26,,,0.28,507.0,meteohub,2013-04-13 16:55:00,
2013-04-13 13:00:00,81.0,75.0,30.02,SE,136,10.0,14.0,82,0.25,,,0.28,477.0,meteohub,2013-04-13 17:00:00,
2013-04-13 13:05:00,80.4,73.8,30.02,ESE,119,3.0,16.0,80,0.25,,,0.28,457.0,meteohub,2013-04-13 17:05:00,
2013-04-13 13:10:00,80.8,73.6,30.02,East,100,8.0,18.0,79,0.25,,,0.28,465.0,meteohub,2013-04-13 17:10:00,
2013-04-13 13:15:00,80.8,73.9,30.01,SE,128,6.0,18.0,80,0.25,,,0.28,540.0,meteohub,2013-04-13 17:15:00,
2013-04-13 13:20:00,81.1,74.3,30.01,ESE,114,2.0,18.0,80,0.25,,,0.28,489.0,meteohub,2013-04-13 17:20:00,
2013-04-13 13:25:00,81.3,74.5,30.01,ESE,116,2.0,15.0,80,0.25,,,0.28,456.0,meteohub,2013-04-13 17:25:00,
2013-04-13 13:30:00,82.4,75.2,30.01,SE,140,4.0,-999.0,79,0.21,,,0.28,456.0,meteohub,2013-04-13 17:30:00,
2013-04-13 13:35:00,83.5,75.6,30.01,ESE,109,10.0,10.0,77,0.14,,,0.28,998.0,meteohub,2013-04-13 17:35:00,
2013-04-13 13:40:00,84.6,75.7,30.01,ENE,78,1.0,12.0,75,0.03,,,0.28,991.0,meteohub,2013-04-13 17:40:00,
2013-04-13 13:45:00,85.1,75.0,29.99,East,79,3.0,12.0,72,0.00,,,0.28,1070.0,meteohub,2013-04-13 17:45:00,
2013-04-13 13:50:00,84.7,74.7,29.99,ENE,68,0.0,12.0,72,0.00,,,0.28,230.0,meteohub,2013-04-13 17:50:00,
2013-04-13 13:55:00,85.6,75.6,29.99,ENE,68,8.0,10.0,72,0.00,,,0.28,230.0,meteohub,2013-04-13 17:55:00,
2013-04-13 14:01:00,85.3,74.3,29.99,SE,127,6.0,10.0,70,0.00,,,0.28,178.0,meteohub,2013-04-13 18:01:00,
2013-04-13 14:07:00,85.5,75.0,29.99,ESE,113,4.0,10.0,71,0.00,,,0.28,1130.0,meteohub,2013-04-13 18:07:00,
2013-04-13 14:12:00,86.4,75.4,29.99,East,82,0.0,12.0,70,0.00,,,0.28,216.0,meteohub,2013-04-13 18:12:00,
2013-04-13 14:17:00,86.5,74.7,29.98,SE,138,2.0,12.0,68,0.00,,,0.28,1019.0,meteohub,2013-04-13 18:17:00,
2013-04-13 14:22:00,87.4,74.7,29.98,SE,137,6.0,8.0,66,0.00,,,0.28,1001.0,meteohub,2013-04-13 18:22:00,
2013-04-13 14:27:00,88.0,74.3,29.98,ESE,112,2.0,14.0,64,0.00,,,0.28,1052.0,meteohub,2013-04-13 18:27:00,
2013-04-13 14:28:00,88.0,74.3,29.97,ESE,112,1.0,14.0,64,0.00,,,0.28,1052.0,meteohub,2013-04-13 18:28:00,
2013-04-13 14:33:00,88.0,75.2,29.97,East,79,3.0,14.0,66,0.00,,,0.28,267.0,meteohub,2013-04-13 18:33:00,
2013-04-13 14:38:00,87.8,73.6,29.97,SE,133,10.0,12.0,63,0.00,,,0.28,190.0,meteohub,2013-04-13 18:38:00,
2013-04-13 14:43:00,87.3,73.0,29.96,East,79,7.0,12.0,63,0.00,,,0.28,144.0,meteohub,2013-04-13 18:43:00,
2013-04-13 14:48:00,87.4,73.8,29.96,NE,51,0.0,11.0,64,0.00,,,0.28,927.0,meteohub,2013-04-13 18:48:00,
2013-04-13 14:53:00,88.0,73.4,29.96,SSE,151,6.0,11.0,62,0.00,,,0.28,982.0,meteohub,2013-04-13 18:53:00,
2013-04-13 14:58:00,87.6,72.5,29.96,ESE,114,7.0,15.0,61,0.00,,,0.28,248.0,meteohub,2013-04-13 18:58:00,
2013-04-13 15:03:00,87.3,73.0,29.96,East,100,5.0,16.0,63,0.00,,,0.28,171.0,meteohub,2013-04-13 19:03:00,
2013-04-13 15:09:00,86.7,73.6,29.96,SE,127,5.0,16.0,65,0.00,,,0.28,838.0,meteohub,2013-04-13 19:09:00,
2013-04-13 15:14:00,87.4,73.2,29.96,SSE,148,10.0,14.0,63,0.00,,,0.28,904.0,meteohub,2013-04-13 19:14:00,
2013-04-13 15:19:00,87.3,73.0,29.96,ESE,106,6.0,14.0,63,0.00,,,0.28,188.0,meteohub,2013-04-13 19:19:00,
2013-04-13 15:24:00,87.1,72.9,29.96,SE,136,5.0,14.0,63,0.00,,,0.28,765.0,meteohub,2013-04-13 19:24:00,
2013-04-13 15:29:00,87.3,72.7,29.96,ESE,121,6.0,13.0,62,0.00,,,0.28,764.0,meteohub,2013-04-13 19:29:00,
2013-04-13 15:34:00,87.4,72.3,29.96,East,89,6.0,16.0,61,0.00,,,0.28,764.0,meteohub,2013-04-13 19:34:00,
2013-04-13 15:39:00,87.3,72.1,29.96,ESE,119,6.0,16.0,61,0.00,,,0.28,143.0,meteohub,2013-04-13 19:39:00,
2013-04-13 15:44:00,87.1,72.5,29.95,SE,131,0.0,16.0,62,0.00,,,0.28,714.0,meteohub,2013-04-13 19:44:00,
2013-04-13 15:49:00,87.8,72.7,29.95,South,181,3.0,15.0,61,0.00,,,0.28,695.0,meteohub,2013-04-13 19:49:00,
2013-04-13 15:54:00,88.0,72.9,29.95,SSW,193,3.0,14.0,61,0.00,,,0.28,686.0,meteohub,2013-04-13 19:54:00,
2013-04-13 15:59:00,88.3,72.7,29.95,SE,126,5.0,13.0,60,0.00,,,0.28,663.0,meteohub,2013-04-13 19:59:00,
2013-04-13 16:04:00,88.5,72.3,29.95,SSE,155,14.0,16.0,59,0.00,,,0.28,646.0,meteohub,2013-04-13 20:04:00,
2013-04-13 16:09:00,88.5,70.3,29.95,SE,136,6.0,16.0,55,0.00,,,0.28,612.0,meteohub,2013-04-13 20:09:00,
2013-04-13 16:14:00,88.9,71.6,29.95,South,169,5.0,16.0,57,0.00,,,0.28,157.0,meteohub,2013-04-13 20:14:00,
2013-04-13 16:19:00,88.0,73.4,29.95,ENE,76,11.0,14.0,62,0.00,,,0.28,139.0,meteohub,2013-04-13 20:19:00,
2013-04-13 16:24:00,86.7,74.5,29.95,East,80,12.0,13.0,67,0.00,,,0.28,171.0,meteohub,2013-04-13 20:24:00,
2013-04-13 16:29:00,85.6,74.3,29.95,East,96,6.0,13.0,69,0.00,,,0.28,169.0,meteohub,2013-04-13 20:29:00,
2013-04-13 16:34:00,85.3,74.3,29.95,ENE,62,5.0,14.0,70,0.00,,,0.28,341.0,meteohub,2013-04-13 20:34:00,
2013-04-13 16:39:00,85.3,74.8,29.95,East,99,12.0,14.0,71,0.00,,,0.28,521.0,meteohub,2013-04-13 20:39:00,
2013-04-13 16:44:00,84.7,74.3,29.94,East,93,10.0,18.0,71,0.00,,,0.28,95.0,meteohub,2013-04-13 20:44:00,
2013-04-13 16:49:00,84.4,73.9,29.94,ESE,104,5.0,18.0,71,0.00,,,0.28,76.0,meteohub,2013-04-13 20:49:00,
2013-04-13 16:54:00,84.0,73.9,29.94,ESE,103,4.0,18.0,72,0.00,,,0.28,84.0,meteohub,2013-04-13 20:54:00,
2013-04-13 16:59:00,83.8,73.8,29.95,ESE,102,8.0,18.0,72,0.00,,,0.28,91.0,meteohub,2013-04-13 20:59:00,
2013-04-13 17:04:00,83.8,74.3,29.95,ESE,106,11.0,17.0,73,0.00,,,0.28,83.0,meteohub,2013-04-13 21:04:00,
2013-04-13 17:09:00,83.7,74.1,29.95,East,99,1.0,17.0,73,0.00,,,0.28,114.0,meteohub,2013-04-13 21:09:00,
2013-04-13 17:14:00,83.5,73.9,29.95,East,88,2.0,17.0,73,0.00,,,0.28,118.0,meteohub,2013-04-13 21:14:00,
2013-04-13 17:19:00,83.7,74.5,29.95,ENE,72,1.0,17.0,74,0.00,,,0.28,100.0,meteohub,2013-04-13 21:19:00,
2013-04-13 17:24:00,83.7,74.8,29.95,SE,130,11.0,15.0,75,0.00,,,0.28,100.0,meteohub,2013-04-13 21:24:00,
2013-04-13 17:29:00,82.9,74.7,29.95,SE,124,0.0,13.0,76,0.00,,,0.28,63.0,meteohub,2013-04-13 21:29:00,
2013-04-13 17:35:00,82.8,74.5,29.95,ESE,116,0.0,13.0,76,0.00,,,0.28,37.0,meteohub,2013-04-13 21:35:00,
2013-04-13 17:40:00,82.4,74.5,29.95,ESE,121,4.0,13.0,77,0.00,,,0.28,39.0,meteohub,2013-04-13 21:40:00,
2013-04-13 17:45:00,82.2,74.3,29.95,SSE,147,7.0,12.0,77,0.00,,,0.28,35.0,meteohub,2013-04-13 21:45:00,
2013-04-13 17:50:00,82.0,73.8,29.95,East,95,3.0,12.0,76,0.00,,,0.28,33.0,meteohub,2013-04-13 21:50:00,
2013-04-13 17:55:00,82.0,73.8,29.95,ESE,116,5.0,12.0,76,0.00,,,0.28,35.0,meteohub,2013-04-13 21:55:00,
2013-04-13 18:00:00,82.0,73.8,29.96,SE,127,5.0,12.0,76,0.00,,,0.28,46.0,meteohub,2013-04-13 22:00:00,
2013-04-13 18:05:00,82.0,73.4,29.96,ESE,103,6.0,12.0,75,0.00,,,0.28,42.0,meteohub,2013-04-13 22:05:00,
2013-04-13 18:10:00,81.9,73.2,29.96,ESE,109,8.0,14.0,75,0.00,,,0.28,32.0,meteohub,2013-04-13 22:10:00,
2013-04-13 18:15:00,81.9,73.2,29.96,SE,136,8.0,14.0,75,0.00,,,0.28,18.0,meteohub,2013-04-13 22:15:00,
2013-04-13 18:20:00,81.7,73.0,29.96,ESE,119,0.0,13.0,75,0.00,,,0.28,14.0,meteohub,2013-04-13 22:20:00,
2013-04-13 18:25:00,81.3,72.7,29.96,ESE,117,4.0,13.0,75,0.00,,,0.28,14.0,meteohub,2013-04-13 22:25:00,
2013-04-13 18:30:00,81.3,72.7,29.96,SE,126,6.0,13.0,75,0.00,,,0.28,12.0,meteohub,2013-04-13 22:30:00,
2013-04-13 18:35:00,81.3,72.7,29.96,ESE,104,9.0,12.0,75,0.00,,,0.28,9.0,meteohub,2013-04-13 22:35:00,
2013-04-13 18:40:00,81.1,72.5,29.96,ESE,102,6.0,13.0,75,0.00,,,0.28,0.0,meteohub,2013-04-13 22:40:00,
2013-04-13 18:45:00,81.1,72.9,29.97,SE,134,4.0,13.0,76,0.00,,,0.28,0.0,meteohub,2013-04-13 22:45:00,
2013-04-13 18:50:00,81.1,72.9,29.97,ESE,120,6.0,13.0,76,0.00,,,0.28,0.0,meteohub,2013-04-13 22:50:00,
2013-04-13 18:56:00,81.1,72.9,29.97,SE,133,8.0,13.0,76,0.00,,,0.28,0.0,meteohub,2013-04-13 22:56:00,
2013-04-13 19:01:00,81.1,73.2,29.97,ESE,107,6.0,13.0,77,0.00,,,0.28,0.0,meteohub,2013-04-13 23:01:00,
2013-04-13 19:06:00,81.1,73.2,29.97,East,97,7.0,13.0,77,0.00,,,0.28,0.0,meteohub,2013-04-13 23:06:00,
2013-04-13 19:11:00,81.1,73.6,29.97,ESE,117,8.0,13.0,78,0.00,,,0.28,0.0,meteohub,2013-04-13 23:11:00,
2013-04-13 19:16:00,81.0,73.4,29.98,East,97,8.0,13.0,78,0.00,,,0.28,0.0,meteohub,2013-04-13 23:16:00,
2013-04-13 19:21:00,80.8,73.6,29.98,East,92,7.0,13.0,79,0.00,,,0.28,0.0,meteohub,2013-04-13 23:21:00,
2013-04-13 19:27:00,80.4,73.2,29.98,East,86,6.0,13.0,79,0.00,,,0.28,0.0,meteohub,2013-04-13 23:27:00,
2013-04-13 19:32:00,80.8,73.6,29.99,East,100,3.0,12.0,79,0.00,,,0.28,0.0,meteohub,2013-04-13 23:32:00,
2013-04-13 19:37:00,80.4,73.2,29.99,NE,56,2.0,11.0,79,0.00,,,0.28,0.0,meteohub,2013-04-13 23:37:00,
2013-04-13 19:42:00,80.4,73.8,29.99,ENE,73,0.0,11.0,80,0.00,,,0.28,0.0,meteohub,2013-04-13 23:42:00,
2013-04-13 19:47:00,80.8,73.9,29.99,ESE,112,0.0,10.0,80,0.00,,,0.28,0.0,meteohub,2013-04-13 23:47:00,
2013-04-13 19:52:00,80.4,73.8,29.99,ESE,104,0.0,10.0,80,0.00,,,0.28,0.0,meteohub,2013-04-13 23:52:00,
2013-04-13 19:57:00,80.2,73.9,29.99,ENE,78,7.0,10.0,81,0.00,,,0.28,0.0,meteohub,2013-04-13 23:57:00,
2013-04-13 20:02:00,80.1,73.8,29.99,SE,124,6.0,10.0,81,0.00,,,0.28,0.0,meteohub,2013-04-14 00:02:00,
2013-04-13 20:07:00,80.1,73.8,29.99,East,96,5.0,10.0,81,0.00,,,0.28,0.0,meteohub,2013-04-14 00:07:00,
2013-04-13 20:12:00,79.9,73.6,30.00,East,99,6.0,11.0,81,0.00,,,0.28,0.0,meteohub,2013-04-14 00:12:00,
2013-04-13 20:17:00,79.9,73.9,30.00,ESE,104,0.0,11.0,82,0.00,,,0.28,0.0,meteohub,2013-04-14 00:17:00,
2013-04-13 20:22:00,79.9,73.9,30.00,East,96,0.0,11.0,82,0.00,,,0.28,0.0,meteohub,2013-04-14 00:22:00,
2013-04-13 20:28:00,79.5,73.6,30.00,ESE,116,0.0,9.0,82,0.00,,,0.28,0.0,meteohub,2013-04-14 00:28:00,
2013-04-13 20:33:00,79.5,73.6,30.00,SE,136,0.0,9.0,82,0.00,,,0.28,0.0,meteohub,2013-04-14 00:33:00,
2013-04-13 20:38:00,79.5,73.6,30.00,SE,134,5.0,8.0,82,0.00,,,0.28,0.0,meteohub,2013-04-14 00:38:00,
2013-04-13 20:43:00,79.3,73.4,30.01,ESE,120,0.0,10.0,82,0.00,,,0.28,0.0,meteohub,2013-04-14 00:43:00,
2013-04-13 20:48:00,79.3,73.4,30.01,ESE,123,0.0,10.0,82,0.00,,,0.28,0.0,meteohub,2013-04-14 00:48:00,
2013-04-13 20:53:00,79.3,73.8,30.01,ESE,123,0.0,10.0,83,0.00,,,0.28,0.0,meteohub,2013-04-14 00:53:00,
2013-04-13 20:58:00,79.2,73.6,30.01,ESE,123,0.0,2.0,83,0.00,,,0.28,0.0,meteohub,2013-04-14 00:58:00,
2013-04-13 21:03:00,79.2,73.6,30.01,ESE,116,0.0,0.0,83,0.00,,,0.28,0.0,meteohub,2013-04-14 01:03:00,
2013-04-13 21:08:00,79.2,73.9,30.01,ESE,117,0.0,5.0,84,0.00,,,0.28,0.0,meteohub,2013-04-14 01:08:00,
2013-04-13 21:13:00,79.0,73.8,30.02,SE,126,0.0,5.0,84,0.00,,,0.28,0.0,meteohub,2013-04-14 01:13:00,
2013-04-13 21:18:00,79.0,73.8,30.02,ESE,113,0.0,7.0,84,0.00,,,0.28,0.0,meteohub,2013-04-14 01:18:00,
2013-04-13 21:24:00,79.0,73.8,30.02,ESE,113,0.0,7.0,84,0.00,,,0.28,0.0,meteohub,2013-04-14 01:24:00,
2013-04-13 21:28:00,79.0,73.8,30.02,East,90,5.0,7.0,84,0.00,,,0.28,0.0,meteohub,2013-04-14 01:28:00,
2013-04-13 21:34:00,79.0,73.8,30.02,East,99,0.0,5.0,84,0.00,,,0.28,0.0,meteohub,2013-04-14 01:34:00,
2013-04-13 21:39:00,78.8,73.9,30.02,East,100,0.0,7.0,85,0.00,,,0.28,0.0,meteohub,2013-04-14 01:39:00,
2013-04-13 21:44:00,78.8,73.9,30.02,ESE,103,0.0,7.0,85,0.00,,,0.28,0.0,meteohub,2013-04-14 01:44:00,
2013-04-13 21:49:00,78.8,73.9,30.02,ESE,119,5.0,7.0,85,0.00,,,0.28,0.0,meteohub,2013-04-14 01:49:00,
2013-04-13 21:54:00,78.6,73.8,30.02,ESE,119,0.0,7.0,85,0.00,,,0.28,0.0,meteohub,2013-04-14 01:54:00,
2013-04-13 21:59:00,78.6,73.8,30.03,ESE,123,0.0,6.0,85,0.00,,,0.28,0.0,meteohub,2013-04-14 01:59:00,
2013-04-13 22:04:00,78.4,73.6,30.03,ESE,120,4.0,7.0,85,0.00,,,0.28,0.0,meteohub,2013-04-14 02:04:00,
2013-04-13 22:09:00,78.3,73.4,30.03,SE,128,0.0,7.0,85,0.00,,,0.28,0.0,meteohub,2013-04-14 02:09:00,
2013-04-13 22:14:00,78.3,73.4,30.04,SE,133,0.0,7.0,85,0.00,,,0.28,0.0,meteohub,2013-04-14 02:14:00,
2013-04-13 22:19:00,78.3,73.4,30.04,SE,127,0.0,7.0,85,0.00,,,0.28,0.0,meteohub,2013-04-14 02:19:00,
2013-04-13 22:24:00,78.3,73.0,30.04,SE,128,0.0,0.0,84,0.00,,,0.28,0.0,meteohub,2013-04-14 02:24:00,
2013-04-13 22:30:00,78.1,72.9,30.04,SE,128,0.0,0.0,84,0.00,,,0.28,0.0,meteohub,2013-04-14 02:30:00,
2013-04-13 22:35:00,78.1,72.9,30.04,SE,133,0.0,0.0,84,0.00,,,0.28,0.0,meteohub,2013-04-14 02:35:00,
2013-04-13 22:40:00,78.1,72.9,30.04,SE,131,0.0,0.0,84,0.00,,,0.28,0.0,meteohub,2013-04-14 02:40:00,
2013-04-13 22:45:00,78.1,72.9,30.04,SE,126,0.0,0.0,84,0.00,,,0.28,0.0,meteohub,2013-04-14 02:45:00,
2013-04-13 22:50:00,78.1,72.9,30.04,SE,126,0.0,6.0,84,0.00,,,0.28,0.0,meteohub,2013-04-14 02:50:00,
2013-04-13 22:55:00,77.9,72.7,30.04,SE,126,0.0,6.0,84,0.00,,,0.28,0.0,meteohub,2013-04-14 02:55:00,
2013-04-13 23:00:00,77.9,72.7,30.03,SE,127,0.0,6.0,84,0.00,,,0.28,0.0,meteohub,2013-04-14 03:00:00,
2013-04-13 23:05:00,77.7,72.5,30.03,SE,126,0.0,0.0,84,0.00,,,0.28,0.0,meteohub,2013-04-14 03:05:00,
2013-04-13 23:10:00,77.9,72.7,30.03,SE,141,0.0,0.0,84,0.00,,,0.28,0.0,meteohub,2013-04-14 03:10:00,
2013-04-13 23:15:00,77.7,72.5,30.03,SE,136,0.0,0.0,84,0.00,,,0.28,0.0,meteohub,2013-04-14 03:15:00,
2013-04-13 23:20:00,77.7,72.5,30.03,SE,136,0.0,4.0,84,0.00,,,0.28,0.0,meteohub,2013-04-14 03:20:00,
2013-04-13 23:25:00,77.5,72.3,30.03,SE,136,0.0,4.0,84,0.00,,,0.28,0.0,meteohub,2013-04-14 03:25:00,
2013-04-13 23:30:00,77.7,72.5,30.03,SE,136,0.0,0.0,84,0.00,,,0.28,0.0,meteohub,2013-04-14 03:30:00,
2013-04-13 23:36:00,77.5,72.3,30.03,SE,136,0.0,0.0,84,0.00,,,0.28,0.0,meteohub,2013-04-14 03:36:00,
2013-04-13 23:40:00,77.5,72.3,30.03,SE,136,0.0,0.0,84,0.00,,,0.28,0.0,meteohub,2013-04-14 03:40:00,
2013-04-13 23:45:00,77.7,72.5,30.02,SE,136,0.0,0.0,84,0.00,,,0.28,0.0,meteohub,2013-04-14 03:45:00,
2013-04-13 23:51:00,77.7,72.5,30.02,SE,136,0.0,0.0,84,0.00,,,0.28,0.0,meteohub,2013-04-14 03:51:00,
2013-04-13 23:56:00,77.7,72.5,30.02,SE,136,0.0,0.0,84,0.00,,,0.28,0.0,meteohub,2013-04-14 03:56:00,